2017-045A

Last updated on Tue Aug 15 2017 00:15:02 GMT+0000 (Coordinated Universal Time)

1 42904U 17045A 17226.87411706 -.00003592 11357-4 00000+0 0 9998 2 42904 51.6348 105.7432 0111924 47.0722 314.4289 15.98501314 31
UTC large
Height (km)
Speed (km/s)
/
Latitude / Longitude
Inclination (degrees)
Orbital Period (minutes)
Azimuth
Elevation
Range (km)
Doppler Factor

Next 0 passes for location: London (51.5072 / 0.1276)

Sorry there are no passes over London.